Showing default

DROR-1, 64784

Orbit data source: Space-Track

DROR-1, 64784 is a payload satellite owned by ISA (IL) in GEO that was launched on Sun, 13 Jul 2025 UTC via an FALCON 9 launch vehicle from the Air Force Eastern Test Range (AFETR). Payload-class satellites include a variety of spacecraft equipped with specific instruments for various scientific and technological missions. These include communications satellites like Starlink; space stations such as the ISS; scientific satellites like the Hubble; Earth observation satellites from companies like Planet Labs, Umbra, and HawkEye 360; GPS; miniature CubeSats for education and research; and military/defense satellites.

Not visible in the next 10 days
Identifier
64784, 2025-148A
Orbit
GEO
Country
Flag of ILIL / ISRA
Related business
Manufacturer
IAI
Mission
Operational Civil Communications
Bus & Motor
AMOS-4000, S400
Mass
4,500 kg wet, ~2,500 kg dry
Launch date (UTC)
2025-07-13 (1 year ago)
Launch vehicle
FALCON 9
Launch site
Air Force Eastern Test Range (AFETR)
Object type
Payload
Rocket body
Debris
Shape & HBR
Box + 2 Pan, 8.9 m
Radar Cross Section
34.225 m²

Expand to show TLE details & history
Last TLE update: 8 hours ago

TLE from 8 hours ago
0 DROR-1
1 64784U 25148A   26255.93494605 -.00000047  00000-0  00000-0 0  9991
2 64784   0.0179 238.1810 0000362 334.6956 111.5975  1.00271824  4174
Epoch: 2026-09-12T22:26Z
TLE epoch observation values (Epoch: 2026-09-12T22:26:19.338Z)
Latitude
0.02121°
Longitude
-4.04076°
Altitude
35,786.641 km
Speed
3.075 km/s
True Right ascension
21h 37m 54s
True Declination
0° 01' 16"
Sunlit
Object was in daylight at epoch
Visualization orbit readout
Latitude
Unknown
Longitude
Unknown
Altitude
Unknown
Speed
Unknown
Apparent Right ascension
Unknown
Apparent Declination
Unknown
Sunlit
N/A
Visualization observer readout
Local Sidereal Time
22:35:35
Azimuth
Unknown
Elevation
Unknown
Doppler factor
Unknown
Orbital elements
Apogee altitude
35,789.181 km
Perigee altitude
35,786.128 km
Semi-major axis
42,165.791 km
Eccentricity
0.00004
Inclination
0.0179°
RAAN
238.181°
Arg. of periapsis
334.6956°
True anomaly
111.60136°
Mean anomaly
111.5975°
Eccentric anomaly
111.59943°
Mean motion
0.25067 °/min
Orbital period
1,436.15 mins
BSTAR
0
Loading maneuver chart data...
Computing Atmospheric mass density...
Loading historical data...
Loading historical data...
Loading historical data...
Loading historical data...
Loading historical data...
Loading historical data...
Loading historical data...
Other satellites on launch #148 in the year 2025 (2025-07-13 UTC)

Documentation

Showing up to 5 results
|